Location: Fasanenhof
(48.7107°N, 9.1590°E)
Time: 06:17:49
(UTC+00:00)

ISS - Visible Passes

Search period start: 19 February 2019 00:00
Search period end: 01 March 2019 00:00
Orbit: 403 x 411 km, 51.6° (Epoch: 19 February)

Date Brightness Start Highest point End Pass type
(mag) Time Alt. Az. Time Alt. Az. Time Alt. Az.
23 Feb -1.1 05:33:41 10° S 05:36:05 19° SE 05:38:28 10° E visible
24 Feb -0.8 04:43:36 10° SSE 04:44:48 12° SE 04:46:00 10° ESE visible
25 Feb -2.4 05:26:16 10° SW 05:29:19 37° SSE 05:32:22 10° ENE visible
26 Feb -1.7 04:35:38 12° SSW 04:37:55 23° SE 04:40:36 10° E visible
27 Feb -1.2 03:46:29 15° SE 03:46:35 15° SE 03:48:28 10° ESE visible
27 Feb -3.6 05:19:23 10° WSW 05:22:38 70° SSE 05:25:54 10° ENE visible
28 Feb -3.0 04:29:55 29° SSW 04:31:08 45° SSE 04:34:17 10° ENE visible
